^^
Meteo Knjazevac Station Historical Data
Daily Summary for June 11, 2021 Units:  English    Metric   Both
Daily Weekly Monthly Yearly Custom
  High: Low: Average:
Temperature: 32.2 °F 31.8 °F 32 °F
Dew Point: 31.9 °F 31.6 °F 31.8 °F
Humidity: 99% 99% 99%
Wind Speed: 3mph 0mph 1mph
Wind Gust: 11mph - -
Wind- - South
Pressure: 30.02 in 29.98 in -
Precipitation: 0.05 in    
Historical Graphs
 
 
Tabular Data for June 11, 2021
Time Temperature Dew Point Pressure Wind Wind Speed Wind Gust Humidity Rainfall Rate (Hourly) solar Conditions
00:00 31.8 °F 31.6 °F 30.02 in Calm   2 mph 99% 0.00 in 0 W/m2
00:10 31.8 °F 31.6 °F 30.02 in Calm   1 mph 99% 0.00 in 0 W/m2
00:20 31.8 °F 31.6 °F 30.02 in North 1 mph 4 mph 99% 0.00 in 0 W/m2
00:30 31.8 °F 31.6 °F 30.00 in Calm   4 mph 99% 0.00 in 0 W/m2
00:40 31.8 °F 31.6 °F 30.01 in Calm   5 mph 99% 0.00 in 0 W/m2
00:50 31.8 °F 31.6 °F 29.98 in North 1 mph 5 mph 99% 0.00 in 0 W/m2
01:00 31.8 °F 31.6 °F 29.98 in NNW 2 mph 6 mph 99% 0.00 in 0 W/m2
01:10 32 °F 31.7 °F 30.00 in NNW 2 mph 6 mph 99% 0.00 in 0 W/m2
01:20 32 °F 31.8 °F 30.01 in NNW 2 mph 9 mph 99% 0.01 in 0 W/m2
01:30 32.2 °F 31.9 °F 30.00 in NNE 1 mph 9 mph 99% 0.01 in 0 W/m2
01:40 32.2 °F 31.9 °F 30.00 in Calm   5 mph 99% 0.00 in 0 W/m2
01:50 32.2 °F 31.9 °F 30.01 in North 1 mph 11 mph 99% 0.00 in 0 W/m2
02:00 32.2 °F 31.9 °F 30.02 in North 1 mph 4 mph 99% 0.00 in 0 W/m2
02:10 32.2 °F 31.9 °F 30.01 in NNE 1 mph 6 mph 99% 0.00 in 0 W/m2
02:20 32.2 °F 31.9 °F 30.01 in NE 3 mph 9 mph 99% 0.01 in 0 W/m2
02:30 32 °F 31.8 °F 30.01 in NE 1 mph 8 mph 99% 0.01 in 0 W/m2
02:40 32.2 °F 31.9 °F 30.02 in North 1 mph 7 mph 99% 0.01 in 0 W/m2
02:50 32.2 °F 31.9 °F 30.01 in North 1 mph 7 mph 99% 0.00 in 0 W/m2
03:00 32 °F 31.8 °F 30.02 in NNE 1 mph 5 mph 99% 0.00 in 0 W/m2
03:10 32 °F 31.8 °F 30.02 in NNW 1 mph 5 mph 99% 0.00 in 0 W/m2
03:20 32 °F 31.8 °F 30.01 in NNE 2 mph 6 mph 99% 0.00 in 0 W/m2
03:30 32 °F 31.8 °F 30.00 in Calm   7 mph 99% 0.00 in 0 W/m2
03:40 31.8 °F 31.6 °F 30.00 in Calm   6 mph 99% 0.00 in 0 W/m2
Knjazevac, Serbia
Compliments of Weather Underground - 2 mb